This is the latest recevied weather packets stored in our database for station/object OE9SAU-10. If no packets are shown the sender has not sent any weather packets the latest 10 day(s).
| Time | Temp. | Humidity | Pressure | Rain* | Wind** | Luminosity | Snow |
|---|---|---|---|---|---|---|---|
| 1777075345 | 15° C | 31% | 1021.9 hPa | - | - | - | - |
| 1777074445 | 15° C | 31% | 1021.9 hPa | - | - | - | - |
| 1777073544 | 15.56° C | 31% | 1022 hPa | - | - | - | - |
| 1777072643 | 15.56° C | 30% | 1022 hPa | - | - | - | - |
| 1777071743 | 15.56° C | 30% | 1022.2 hPa | - | - | - | - |
| 1777070843 | 15.56° C | 30% | 1022.2 hPa | - | - | - | - |
| 1777069943 | 16.11° C | 29% | 1022.2 hPa | - | - | - | - |
| 1777069043 | 16.11° C | 29% | 1022.2 hPa | - | - | - | - |
| 1777068143 | 16.67° C | 28% | 1022.2 hPa | - | - | - | - |
| 1777067243 | 16.67° C | 28% | 1022.2 hPa | - | - | - | - |
| 1777066343 | 17.22° C | 28% | 1022.2 hPa | - | - | - | - |
| 1777065443 | 17.22° C | 27% | 1022.2 hPa | - | - | - | - |
| 1777064543 | 17.78° C | 27% | 1022 hPa | - | - | - | - |
| 1777063643 | 17.78° C | 27% | 1022.1 hPa | - | - | - | - |
| 1777062742 | 17.78° C | 27% | 1022 hPa | - | - | - | - |
| 1777061842 | 18.33° C | 27% | 1022 hPa | - | - | - | - |
| 1777060942 | 18.33° C | 27% | 1022 hPa | - | - | - | - |
| 1777060042 | 18.33° C | 27% | 1021.9 hPa | - | - | - | - |
| 1777059142 | 19.44° C | 26% | 1021.9 hPa | - | - | - | - |
| 1777058242 | 20° C | 26% | 1021.7 hPa | - | - | - | - |
| 1777057342 | 20° C | 25% | 1021.7 hPa | - | - | - | - |
| 1777056442 | 20.56° C | 25% | 1021.5 hPa | - | - | - | - |
| 1777055542 | 21.11° C | 24% | 1021.4 hPa | - | - | - | - |
| 1777054642 | 21.67° C | 24% | 1021.2 hPa | - | - | - | - |
| 1777053742 | 21.67° C | 23% | 1021.1 hPa | - | - | - | - |
* Rain since midnight (hover to see other rain measurements)
** Current wind speed in m/s (hover to see current wind gust speed)